Powrót do katalogu

QIANFAN-32

AktywnyŁącznośćPO
NORAD 61565·PAYLOAD·🇨🇳 China

Wystrzelony Oct 15, 2024 z Taiyuan Satellite Launch Center

Loading…

Następne Przeloty (najbliższe 24 godziny)

TLE

ŚwieżeSource: Space-Track

Epoka: Sep 14, 2026, 12:57 UTC

1 61565U 24185P   26257.53979855  .00000113  00000-0  15637-3 0  9996
2 61565  88.9854  52.6469 0009421   2.0991 358.0198 13.50805410105272

Śledź QIANFAN-32 w czasie rzeczywistym z AllMySat

Download on the App Store